Hourly Data Report for June 07, 2021

WINNIPEG THE FORKS
MANITOBA
Current Station Operator: ECCC - MSC

49°53'18.008" N
97°07'46.007" W
230.00 m
5023262
71579
XWN

Download Data

Hourly Data (June 2021)
Hourly Data Report for June 7, 2021
TIME
LST
Temp Definition
°C
Dew Point Definition
°C
Rel Hum Definition
%
Precip. Amount Definition
mm

Wind Dir Definition
10's deg

Wind Spd Definition
km/h
Visibility Definition
km
Stn Press Definition
kPa
Hmdx Definition


Wind Chill Definition


Weather Definition


00:00 19.3 4.7 38 0.0 23 6   97.66     LegendNANA
01:00 18.8 5.4 41 0.0 26 5   97.76     LegendNANA
02:00 16.8 6.3 50 0.0 28 5   97.86     LegendNANA
03:00 16.0 7.9 58 0.0 29 4   97.92     LegendNANA
04:00 15.2 8.1 63 0.0 30 2   98.00     LegendNANA
05:00 15.4 8.0 61 0.0 30 2   98.03     LegendNANA
06:00 16.2 8.1 59 0.0 30 3   98.17     LegendNANA
07:00 16.6 8.9 61 0.0 2 2   98.13     LegendNANA
08:00 18.2 9.7 58 0.0 4 5   98.12     LegendNANA
09:00 18.1 7.4 50 0.0 33 3   98.28     LegendNANA
10:00 19.1 8.0 48 0.0 3 2   98.36     LegendNANA
11:00 21.4 8.1 42 0.0 21 4   98.34     LegendNANA
12:00 22.1 8.5 42 0.0 19 6   98.31     LegendNANA
13:00 22.9 7.5 37 0.0 22 5   98.32     LegendNANA
14:00 24.0 6.2 32 0.0 5 4   98.31     LegendNANA
15:00 24.6 7.5 33 0.0 36 6   98.29 25   LegendNANA
16:00 24.6 7.0 32 0.0 3 5   98.29 25   LegendNANA
17:00 24.6 6.4 31 0.0 5 5   98.28     LegendNANA
18:00 24.7 6.5 31 0.0 3 8   98.28 25   LegendNANA
19:00 23.5 6.1 33 0.0 4 8   98.29     LegendNANA
20:00 22.3 8.1 40 0.0 4 8   98.27     LegendNANA
21:00 21.2 7.4 41 0.0 6 5   98.35     LegendNANA
22:00 20.2 6.7 42 0.0 4 4   98.33     LegendNANA
23:00 19.3 7.8 47 0.0 4 5   98.39     LegendNANA

Notes on Data Quality.

Legend

  • E = Estimated
  • M = Missing
  • NA = Not Available*
  • [empty] = Indicates an unobserved value
Date modified: